{"data":{"norad_id":47730,"intl_designator":"2021-017J","name":"STARLINK-2140","alt_names":[],"object_type":"PAYLOAD","status":"ACTIVE","operator":null,"country":"US","launch_date":"2021-03-04","launch_site_code":"AFETR","launch_vehicle":null,"mission":null,"orbit_class":"UNKNOWN","rcs_meters":null,"size_class":null,"mass_kg":null,"dimensions":null,"purposes":["comms"],"wikipedia_slug":null,"has_3d_model":false,"image_url":null,"decayed_at":null,"tle_current":{"epoch":"2026-05-25T04:50:00.857184Z","epoch_age_seconds":67822,"freshness":"FRESH","line1":"1 47730U 21017J   26145.20139881  .00005410  00000+0  18581-3 0  9997","line2":"2 47730  53.1591 221.1094 0001097  83.1654 276.9472 15.31728479289373","mean_motion":15.31728479,"eccentricity":0.0001097,"inclination_deg":53.1591,"raan_deg":221.1094,"arg_perigee_deg":83.1654,"mean_anomaly_deg":276.9472,"bstar":0.00018581,"rev_number":28937,"period_min":94.011440000131,"perigee_km":469.90378963032,"apogee_km":471.40641461753,"semimajor_km":6848.7921021239,"source":"CELESTRAK","updated_at":"2026-05-25T13:38:16.564775Z"}}}